Wetterdaten: Woche 02.12.19 - 08.12.19 (KW49)
Datum Zeit Temp. I. Temp. A. Feuchte I. Feuchte A. Luftdruck Regen Wind Richtung Sonnenschein UV Solar Taupunkt Windchill Windben
02.12.2019 00:00 24,8 C -0,1 C 59 % 89 % 1018,6 hPa 0,0 l/m 1,7 km/h (1 Bft) N-NW 0,00 h 0,0 UV-I 0 W/m -1,7 C -0,1 C 3,2 km/h (1 Bft)
02.12.2019 01:00 24,7 C -0,1 C 59 % 90 % 1018,5 hPa 0,0 l/m 2,0 km/h (1 Bft) N-NW 0,00 h 0,0 UV-I 0 W/m -1,6 C -0,1 C 4,0 km/h (1 Bft)
02.12.2019 02:00 24,6 C -0,3 C 60 % 90 % 1018,6 hPa 0,0 l/m 4,2 km/h (1 Bft) N-NW 0,00 h 0,0 UV-I 0 W/m -1,7 C -0,4 C 7,0 km/h (2 Bft)
02.12.2019 03:00 24,6 C -0,2 C 60 % 91 % 1018,9 hPa 0,0 l/m 1,8 km/h (1 Bft) N-NW 0,00 h 0,0 UV-I 0 W/m -1,4 C -0,2 C 3,3 km/h (1 Bft)
02.12.2019 04:00 24,6 C -0,0 C 60 % 91 % 1019,5 hPa 0,0 l/m 4,0 km/h (1 Bft) W 0,00 h 0,0 UV-I 0 W/m -1,3 C -0,5 C 5,5 km/h (2 Bft)
02.12.2019 05:00 24,4 C -0,2 C 60 % 90 % 1019,8 hPa 0,0 l/m 3,0 km/h (1 Bft) N-NW 0,00 h 0,0 UV-I 0 W/m -1,6 C -0,3 C 5,0 km/h (1 Bft)
02.12.2019 06:00 24,5 C -0,3 C 60 % 91 % 1020,4 hPa 0,0 l/m 3,2 km/h (1 Bft) N-NW 0,00 h 0,0 UV-I 0 W/m -1,6 C -0,4 C 5,5 km/h (2 Bft)
02.12.2019 07:00 24,4 C -0,5 C 59 % 91 % 1021,2 hPa 0,0 l/m 2,8 km/h (1 Bft) W-NW 0,00 h 0,0 UV-I 7 W/m -1,8 C -0,5 C 4,7 km/h (1 Bft)
02.12.2019 08:00 24,3 C -0,7 C 58 % 91 % 1022,3 hPa 0,0 l/m 2,0 km/h (1 Bft) W-NW 0,00 h 0,0 UV-I 26 W/m -2,0 C -0,7 C 3,5 km/h (1 Bft)
02.12.2019 09:00 24,3 C -0,3 C 58 % 92 % 1023,2 hPa 0,0 l/m 1,2 km/h (1 Bft) W 0,00 h 0,0 UV-I 49 W/m -1,5 C -0,3 C 2,7 km/h (1 Bft)
02.12.2019 10:00 24,2 C 0,4 C 56 % 90 % 1023,7 hPa 0,0 l/m 0,8 km/h (0 Bft) W-SW 0,00 h 0,6 UV-I 78 W/m -1,1 C 0,4 C 2,0 km/h (1 Bft)
02.12.2019 11:00 24,2 C 1,7 C 56 % 81 % 1023,9 hPa 0,0 l/m 3,3 km/h (1 Bft) W-SW 0,40 h 0,8 UV-I 148 W/m -1,2 C 1,6 C 6,5 km/h (2 Bft)
02.12.2019 12:00 24,2 C 2,8 C 56 % 72 % 1024,1 hPa 0,0 l/m 4,7 km/h (1 Bft) W 0,20 h 0,7 UV-I 135 W/m -1,7 C 2,4 C 9,3 km/h (2 Bft)
02.12.2019 13:00 24,2 C 2,4 C 57 % 77 % 1024,4 hPa 0,0 l/m 5,9 km/h (2 Bft) W-SW 0,00 h 0,5 UV-I 69 W/m -1,2 C 1,6 C 10,7 km/h (2 Bft)
02.12.2019 14:00 24,2 C 2,6 C 57 % 76 % 1024,3 hPa 0,0 l/m 5,5 km/h (2 Bft) SW 0,00 h 0,5 UV-I 59 W/m -1,2 C 2,0 C 9,7 km/h (2 Bft)
02.12.2019 15:00 24,2 C 2,1 C 57 % 79 % 1024,6 hPa 0,0 l/m 8,9 km/h (2 Bft) W-SW 0,00 h 0,0 UV-I 18 W/m -1,1 C -0,2 C 13,4 km/h (3 Bft)
02.12.2019 16:00 24,2 C 1,8 C 57 % 82 % 1024,8 hPa 0,0 l/m 6,2 km/h (2 Bft) W-SW 0,00 h 0,0 UV-I 5 W/m -0,9 C 1,1 C 10,5 km/h (2 Bft)
02.12.2019 17:00 24,2 C 1,6 C 58 % 85 % 1025,1 hPa 0,0 l/m 6,5 km/h (2 Bft) W-SW 0,00 h 0,0 UV-I 0 W/m -0,7 C 0,6 C 11,0 km/h (2 Bft)
02.12.2019 18:00 24,2 C 1,5 C 58 % 86 % 1025,6 hPa 0,0 l/m 8,0 km/h (2 Bft) W-SW 0,00 h 0,0 UV-I 0 W/m -0,6 C -0,2 C 12,8 km/h (3 Bft)
02.12.2019 19:00 24,3 C 1,4 C 58 % 87 % 1026,0 hPa 0,0 l/m 6,9 km/h (2 Bft) SW 0,00 h 0,0 UV-I 0 W/m -0,5 C 0,4 C 11,2 km/h (2 Bft)
02.12.2019 20:00 24,3 C 1,3 C 59 % 89 % 1026,3 hPa 0,0 l/m 6,8 km/h (2 Bft) W-SW 0,00 h 0,0 UV-I 0 W/m -0,4 C 0,3 C 11,7 km/h (2 Bft)
02.12.2019 21:00 24,5 C 1,3 C 60 % 90 % 1026,8 hPa 0,0 l/m 5,2 km/h (1 Bft) W-SW 0,00 h 0,0 UV-I 0 W/m -0,2 C 0,9 C 9,0 km/h (2 Bft)
02.12.2019 22:00 24,6 C 1,1 C 60 % 90 % 1026,8 hPa 0,0 l/m 3,4 km/h (1 Bft) W-SW 0,00 h 0,0 UV-I 0 W/m -0,4 C 1,0 C 6,2 km/h (2 Bft)
02.12.2019 23:00 24,7 C 0,9 C 60 % 91 % 1026,7 hPa 0,0 l/m 2,9 km/h (1 Bft) W-SW 0,00 h 0,0 UV-I 0 W/m -0,4 C 0,9 C 6,2 km/h (2 Bft)
03.12.2019 00:00 24,7 C 0,7 C 60 % 91 % 1027,0 hPa 0,0 l/m 1,5 km/h (1 Bft) W-SW 0,00 h 0,0 UV-I 0 W/m -0,6 C 0,7 C 3,1 km/h (1 Bft)
03.12.2019 01:00 24,6 C 0,4 C 61 % 92 % 1027,4 hPa 0,0 l/m 0,0 km/h (0 Bft) N 0,00 h 0,0 UV-I 0 W/m -0,8 C 0,4 C 0,0 km/h (0 Bft)
03.12.2019 02:00 24,6 C 0,1 C 61 % 92 % 1027,5 hPa 0,0 l/m 0,0 km/h (0 Bft) S-SO 0,00 h 0,0 UV-I 0 W/m -1,0 C 0,1 C 0,2 km/h (0 Bft)
03.12.2019 03:00 24,5 C 0,1 C 61 % 93 % 1027,4 hPa 0,0 l/m 0,0 km/h (0 Bft) S-SW 0,00 h 0,0 UV-I 0 W/m -0,9 C 0,1 C 0,2 km/h (0 Bft)
03.12.2019 04:00 24,4 C 0,3 C 61 % 93 % 1027,6 hPa 0,0 l/m 0,0 km/h (0 Bft) N 0,00 h 0,0 UV-I 0 W/m -0,7 C 0,3 C 0,0 km/h (0 Bft)
03.12.2019 05:00 24,4 C 0,3 C 61 % 94 % 1027,8 hPa 0,0 l/m 0,0 km/h (0 Bft) S-SO 0,00 h 0,0 UV-I 0 W/m -0,5 C 0,3 C 0,0 km/h (0 Bft)
03.12.2019 10:00 23,8 C 1,5 C 51 % 94 % 1029,7 hPa 0,0 l/m 2,9 km/h (1 Bft) S-SO 0,00 h 0,5 UV-I 102 W/m 0,6 C 1,4 C 5,7 km/h (2 Bft)
03.12.2019 11:00 23,8 C 1,8 C 52 % 93 % 1029,4 hPa 0,0 l/m 2,6 km/h (1 Bft) S-SO 0,02 h 0,6 UV-I 96 W/m 0,9 C 1,8 C 5,3 km/h (1 Bft)
03.12.2019 12:00 23,8 C 2,8 C 52 % 92 % 1028,8 hPa 0,0 l/m 2,0 km/h (1 Bft) S-SO 0,12 h 0,6 UV-I 110 W/m 1,6 C 2,8 C 4,8 km/h (1 Bft)
03.12.2019 13:00 23,9 C 3,6 C 52 % 88 % 1028,2 hPa 0,0 l/m 1,6 km/h (1 Bft) SW 0,33 h 0,6 UV-I 128 W/m 1,9 C 3,6 C 4,3 km/h (1 Bft)
03.12.2019 14:00 23,9 C 3,8 C 53 % 86 % 1028,0 hPa 0,0 l/m 0,4 km/h (0 Bft) S-SW 0,02 h 0,5 UV-I 74 W/m 1,7 C 3,8 C 1,3 km/h (1 Bft)
03.12.2019 15:00 23,9 C 3,2 C 53 % 87 % 1028,1 hPa 0,0 l/m 1,5 km/h (1 Bft) SW 0,00 h 0,0 UV-I 25 W/m 1,3 C 3,2 C 3,2 km/h (1 Bft)
03.12.2019 16:00 24,0 C 2,6 C 54 % 88 % 1028,4 hPa 0,0 l/m 0,3 km/h (0 Bft) W-SW 0,00 h 0,0 UV-I 5 W/m 0,9 C 2,6 C 0,7 km/h (0 Bft)
03.12.2019 17:00 23,9 C 1,5 C 54 % 88 % 1028,5 hPa 0,0 l/m 0,0 km/h (0 Bft) N 0,00 h 0,0 UV-I 0 W/m -0,2 C 1,5 C 0,0 km/h (0 Bft)
03.12.2019 18:00 23,9 C 0,6 C 54 % 91 % 1028,6 hPa 0,0 l/m 1,2 km/h (1 Bft) O-SO 0,00 h 0,0 UV-I 0 W/m -0,7 C 0,6 C 1,4 km/h (1 Bft)
03.12.2019 19:00 24,0 C 0,4 C 54 % 93 % 1028,8 hPa 0,0 l/m 0,4 km/h (0 Bft) S-SO 0,00 h 0,0 UV-I 0 W/m -0,7 C 0,4 C 0,7 km/h (0 Bft)
03.12.2019 20:00 24,0 C 0,6 C 55 % 94 % 1028,9 hPa 0,0 l/m 1,3 km/h (1 Bft) S-SO 0,00 h 0,0 UV-I 0 W/m -0,2 C 0,6 C 2,5 km/h (1 Bft)
03.12.2019 21:00 24,2 C 0,8 C 57 % 94 % 1028,9 hPa 0,0 l/m 1,3 km/h (1 Bft) S-SO 0,00 h 0,0 UV-I 0 W/m -0,1 C 0,8 C 2,2 km/h (1 Bft)
03.12.2019 22:00 24,3 C 0,8 C 57 % 94 % 1028,2 hPa 0,0 l/m 0,0 km/h (0 Bft) N 0,00 h 0,0 UV-I 0 W/m -0,1 C 0,8 C 0,2 km/h (0 Bft)
03.12.2019 23:00 24,4 C 0,1 C 57 % 93 % 1028,2 hPa 0,0 l/m 0,0 km/h (0 Bft) N 0,00 h 0,0 UV-I 0 W/m -0,8 C 0,1 C 0,0 km/h (0 Bft)
04.12.2019 00:00 24,3 C -0,8 C 57 % 93 % 1027,9 hPa 0,0 l/m 0,0 km/h (0 Bft) N 0,00 h 0,0 UV-I 0 W/m -1,8 C -0,8 C 0,0 km/h (0 Bft)
04.12.2019 01:00 24,3 C -1,4 C 57 % 93 % 1027,5 hPa 0,0 l/m 0,3 km/h (0 Bft) NO 0,00 h 0,0 UV-I 0 W/m -2,4 C -1,4 C 0,5 km/h (0 Bft)
04.12.2019 02:00 24,3 C -1,7 C 57 % 94 % 1027,3 hPa 0,0 l/m 0,5 km/h (0 Bft) W 0,00 h 0,0 UV-I 0 W/m -2,6 C -1,7 C 1,0 km/h (0 Bft)
04.12.2019 03:00 24,2 C -1,5 C 58 % 94 % 1026,7 hPa 0,0 l/m 0,0 km/h (0 Bft) N 0,00 h 0,0 UV-I 0 W/m -2,4 C -1,5 C 0,0 km/h (0 Bft)
04.12.2019 04:00 24,2 C -1,3 C 58 % 95 % 1026,2 hPa 0,0 l/m 0,1 km/h (0 Bft) N 0,00 h 0,0 UV-I 0 W/m -2,1 C -1,3 C 0,1 km/h (0 Bft)
04.12.2019 05:00 24,2 C -1,2 C 58 % 95 % 1025,9 hPa 0,0 l/m 0,5 km/h (0 Bft) N 0,00 h 0,0 UV-I 0 W/m -1,9 C -1,2 C 1,1 km/h (1 Bft)
04.12.2019 06:00 24,2 C -1,6 C 57 % 95 % 1025,8 hPa 0,0 l/m 0,7 km/h (0 Bft) N 0,00 h 0,0 UV-I 0 W/m -2,3 C -1,6 C 1,5 km/h (1 Bft)
04.12.2019 07:00 24,1 C -1,7 C 57 % 95 % 1026,0 hPa 0,0 l/m 0,6 km/h (0 Bft) W-NW 0,00 h 0,0 UV-I 5 W/m -2,4 C -1,7 C 1,2 km/h (1 Bft)
04.12.2019 08:00 23,6 C -1,8 C 47 % 95 % 1026,2 hPa 0,0 l/m 0,4 km/h (0 Bft) W-NW 0,00 h 0,0 UV-I 24 W/m -2,5 C -1,8 C 1,0 km/h (0 Bft)
04.12.2019 09:00 23,4 C -0,4 C 48 % 96 % 1026,1 hPa 0,0 l/m 0,0 km/h (0 Bft) NW 0,12 h 0,5 UV-I 116 W/m -0,9 C -0,4 C 0,1 km/h (0 Bft)
04.12.2019 10:00 23,5 C 2,7 C 49 % 93 % 1026,0 hPa 0,0 l/m 0,4 km/h (0 Bft) NO 1,00 h 0,7 UV-I 213 W/m 1,6 C 2,7 C 0,9 km/h (0 Bft)
04.12.2019 11:00 23,7 C 4,2 C 49 % 79 % 1025,3 hPa 0,0 l/m 1,1 km/h (1 Bft) O-NO 1,00 h 1,0 UV-I 271 W/m 1,0 C 4,2 C 2,9 km/h (1 Bft)
04.12.2019 12:00 23,7 C 4,4 C 50 % 73 % 1024,6 hPa 0,0 l/m 3,5 km/h (1 Bft) O-NO 1,00 h 1,0 UV-I 278 W/m -0,0 C 4,2 C 9,2 km/h (2 Bft)
04.12.2019 13:00 23,8 C 5,1 C 50 % 72 % 1024,0 hPa 0,0 l/m 4,4 km/h (1 Bft) NO 1,00 h 0,8 UV-I 230 W/m 0,4 C 4,4 C 8,5 km/h (2 Bft)
04.12.2019 14:00 23,8 C 5,7 C 50 % 70 % 1023,5 hPa 0,0 l/m 6,9 km/h (2 Bft) NO 0,32 h 0,5 UV-I 131 W/m 0,5 C 4,3 C 13,0 km/h (3 Bft)
04.12.2019 15:00 23,8 C 4,5 C 51 % 71 % 1023,2 hPa 0,0 l/m 4,7 km/h (1 Bft) NO 0,00 h 0,0 UV-I 43 W/m -0,4 C 4,1 C 10,2 km/h (2 Bft)
04.12.2019 16:00 23,8 C 2,8 C 51 % 76 % 1023,1 hPa 0,0 l/m 3,7 km/h (1 Bft) O-NO 0,00 h 0,0 UV-I 7 W/m -1,1 C 2,5 C 7,9 km/h (2 Bft)
04.12.2019 17:00 23,9 C 1,9 C 52 % 80 % 1023,1 hPa 0,0 l/m 2,6 km/h (1 Bft) O-NO 0,00 h 0,0 UV-I 0 W/m -1,1 C 1,9 C 6,3 km/h (2 Bft)
04.12.2019 18:00 23,9 C 1,7 C 54 % 82 % 1023,0 hPa 0,0 l/m 4,0 km/h (1 Bft) O-NO 0,00 h 0,0 UV-I 0 W/m -1,0 C 1,6 C 8,3 km/h (2 Bft)
04.12.2019 19:00 23,9 C 1,3 C 54 % 82 % 1022,9 hPa 0,0 l/m 1,6 km/h (1 Bft) NO 0,00 h 0,0 UV-I 0 W/m -1,5 C 1,3 C 4,3 km/h (1 Bft)
04.12.2019 20:00 23,9 C 0,4 C 54 % 84 % 1023,0 hPa 0,0 l/m 2,9 km/h (1 Bft) NO 0,00 h 0,0 UV-I 0 W/m -2,0 C 0,2 C 6,0 km/h (2 Bft)
04.12.2019 21:00 24,1 C 0,2 C 56 % 86 % 1022,7 hPa 0,0 l/m 4,8 km/h (1 Bft) NO 0,00 h 0,0 UV-I 0 W/m -1,9 C 0,0 C 9,5 km/h (2 Bft)
04.12.2019 22:00 24,2 C -0,0 C 56 % 86 % 1022,4 hPa 0,0 l/m 6,8 km/h (2 Bft) NO 0,00 h 0,0 UV-I 0 W/m -2,1 C -1,3 C 12,6 km/h (2 Bft)
04.12.2019 23:00 24,2 C -0,1 C 55 % 85 % 1022,4 hPa 0,0 l/m 5,1 km/h (1 Bft) NO 0,00 h 0,0 UV-I 0 W/m -2,4 C -0,8 C 9,7 km/h (2 Bft)
05.12.2019 00:00 24,2 C -0,6 C 55 % 85 % 1022,4 hPa 0,0 l/m 2,2 km/h (1 Bft) O-NO 0,00 h 0,0 UV-I 0 W/m -2,7 C -0,6 C 4,1 km/h (1 Bft)
05.12.2019 01:00 24,2 C -1,4 C 56 % 87 % 1022,3 hPa 0,0 l/m 1,0 km/h (0 Bft) O-NO 0,00 h 0,0 UV-I 0 W/m -3,3 C -1,4 C 2,1 km/h (1 Bft)
05.12.2019 02:00 24,2 C -1,9 C 56 % 89 % 1022,4 hPa 0,0 l/m 2,7 km/h (1 Bft) O-NO 0,00 h 0,0 UV-I 0 W/m -3,5 C -2,0 C 5,2 km/h (1 Bft)
05.12.2019 03:00 24,1 C -1,9 C 56 % 90 % 1022,3 hPa 0,0 l/m 2,5 km/h (1 Bft) O-NO 0,00 h 0,0 UV-I 0 W/m -3,3 C -1,9 C 5,7 km/h (2 Bft)
05.12.2019 04:00 24,1 C -2,2 C 56 % 91 % 1022,4 hPa 0,0 l/m 1,4 km/h (1 Bft) O-NO 0,00 h 0,0 UV-I 0 W/m -3,5 C -2,2 C 3,3 km/h (1 Bft)
05.12.2019 05:00 24,0 C -2,7 C 57 % 91 % 1023,1 hPa 0,0 l/m 0,9 km/h (0 Bft) NO 0,00 h 0,0 UV-I 0 W/m -3,9 C -2,7 C 1,8 km/h (1 Bft)
05.12.2019 06:00 24,0 C -3,3 C 56 % 91 % 1023,4 hPa 0,0 l/m 1,8 km/h (1 Bft) NO 0,00 h 0,0 UV-I 0 W/m -4,5 C -3,3 C 3,1 km/h (1 Bft)
05.12.2019 07:00 24,0 C -3,8 C 56 % 92 % 1023,6 hPa 0,0 l/m 0,8 km/h (0 Bft) O-NO 0,00 h 0,0 UV-I 6 W/m -4,9 C -3,8 C 2,0 km/h (1 Bft)
05.12.2019 08:00 23,8 C -3,9 C 53 % 92 % 1023,6 hPa 0,0 l/m 0,4 km/h (0 Bft) O-NO 0,00 h 0,0 UV-I 36 W/m -4,9 C -3,9 C 1,0 km/h (0 Bft)
05.12.2019 09:00 23,7 C -1,8 C 52 % 92 % 1023,8 hPa 0,0 l/m 0,0 km/h (0 Bft) N 0,03 h 0,5 UV-I 120 W/m -2,8 C -1,8 C 0,1 km/h (0 Bft)
05.12.2019 10:00 23,7 C 0,5 C 52 % 87 % 1024,1 hPa 0,0 l/m 0,2 km/h (0 Bft) SO 1,00 h 0,7 UV-I 201 W/m -1,5 C 0,5 C 0,5 km/h (0 Bft)
05.12.2019 11:00 23,7 C 0,8 C 52 % 83 % 1023,7 hPa 0,0 l/m 4,3 km/h (1 Bft) S-SO 0,55 h 0,8 UV-I 175 W/m -1,7 C 0,6 C 7,4 km/h (2 Bft)
05.12.2019 12:00 23,7 C -0,8 C 51 % 89 % 1023,5 hPa 0,0 l/m 7,4 km/h (2 Bft) S-SO 0,00 h 0,5 UV-I 71 W/m -2,4 C -2,3 C 11,7 km/h (2 Bft)
05.12.2019 13:00 23,7 C -1,0 C 50 % 90 % 1023,5 hPa 0,0 l/m 5,8 km/h (2 Bft) S-SO 0,00 h 0,0 UV-I 45 W/m -2,4 C -1,6 C 9,6 km/h (2 Bft)
05.12.2019 14:00 23,7 C -1,3 C 51 % 91 % 1023,7 hPa 0,0 l/m 5,9 km/h (2 Bft) S-SW 0,00 h 0,0 UV-I 27 W/m -2,5 C -1,7 C 9,1 km/h (2 Bft)
05.12.2019 15:00 23,7 C -1,6 C 51 % 92 % 1023,7 hPa 0,0 l/m 4,5 km/h (1 Bft) S-SO 0,00 h 0,0 UV-I 11 W/m -2,7 C -1,8 C 7,1 km/h (2 Bft)
05.12.2019 16:00 23,7 C -1,7 C 51 % 93 % 1023,6 hPa 0,0 l/m 4,5 km/h (1 Bft) S 0,00 h 0,0 UV-I 0 W/m -2,7 C -2,0 C 7,0 km/h (2 Bft)
05.12.2019 17:00 23,7 C -1,8 C 51 % 93 % 1023,6 hPa 0,0 l/m 6,2 km/h (2 Bft) S-SO 0,00 h 0,0 UV-I 0 W/m -2,8 C -2,5 C 9,5 km/h (2 Bft)
05.12.2019 18:00 23,7 C -1,9 C 52 % 94 % 1023,8 hPa 0,0 l/m 5,9 km/h (2 Bft) S-SO 0,00 h 0,0 UV-I 0 W/m -2,7 C -2,3 C 9,1 km/h (2 Bft)
05.12.2019 19:00 23,6 C -1,9 C 52 % 94 % 1023,8 hPa 0,0 l/m 6,7 km/h (2 Bft) S-SO 0,00 h 0,0 UV-I 0 W/m -2,7 C -3,1 C 10,3 km/h (2 Bft)
05.12.2019 20:00 23,6 C -2,1 C 52 % 95 % 1023,9 hPa 0,0 l/m 8,6 km/h (2 Bft) S-SO 0,00 h 0,0 UV-I 0 W/m -2,8 C -4,5 C 12,6 km/h (3 Bft)
05.12.2019 21:00 23,7 C -2,1 C 53 % 95 % 1023,6 hPa 0,0 l/m 6,8 km/h (2 Bft) S-SO 0,00 h 0,0 UV-I 0 W/m -2,8 C -3,2 C 10,5 km/h (2 Bft)
05.12.2019 22:00 23,9 C -2,2 C 54 % 96 % 1023,4 hPa 0,0 l/m 6,8 km/h (2 Bft) S 0,00 h 0,0 UV-I 0 W/m -2,7 C -3,2 C 10,7 km/h (2 Bft)
05.12.2019 23:00 24,0 C -2,3 C 55 % 96 % 1023,1 hPa 0,0 l/m 7,2 km/h (2 Bft) S-SO 0,00 h 0,0 UV-I 0 W/m -2,8 C -3,5 C 11,0 km/h (2 Bft)
06.12.2019 00:00 24,0 C -2,6 C 55 % 96 % 1022,7 hPa 0,0 l/m 7,1 km/h (2 Bft) S-SO 0,00 h 0,0 UV-I 0 W/m -3,1 C -3,6 C 11,3 km/h (2 Bft)
06.12.2019 01:00 24,0 C -2,8 C 55 % 96 % 1022,4 hPa 0,0 l/m 6,7 km/h (2 Bft) S-SO 0,00 h 0,0 UV-I 0 W/m -3,3 C -3,7 C 10,6 km/h (2 Bft)
06.12.2019 02:00 23,9 C -2,8 C 56 % 96 % 1022,5 hPa 0,0 l/m 6,7 km/h (2 Bft) S-SO 0,00 h 0,0 UV-I 0 W/m -3,3 C -3,7 C 10,3 km/h (2 Bft)
06.12.2019 03:00 23,8 C -2,7 C 56 % 96 % 1022,2 hPa 0,0 l/m 7,0 km/h (2 Bft) S-SO 0,00 h 0,0 UV-I 0 W/m -3,2 C -3,7 C 10,0 km/h (2 Bft)
06.12.2019 04:00 23,9 C -2,5 C 56 % 96 % 1021,7 hPa 0,0 l/m 6,9 km/h (2 Bft) S-SO 0,00 h 0,0 UV-I 0 W/m -3,1 C -3,6 C 8,6 km/h (2 Bft)
06.12.2019 05:00 23,9 C -2,3 C 56 % 96 % 1021,4 hPa 0,0 l/m 8,8 km/h (2 Bft) S 0,00 h 0,0 UV-I 0 W/m -2,8 C -4,9 C 10,9 km/h (2 Bft)
06.12.2019 06:00 23,8 C -2,4 C 56 % 96 % 1021,3 hPa 0,0 l/m 6,8 km/h (2 Bft) S-SO 0,00 h 0,0 UV-I 0 W/m -2,9 C -3,5 C 11,2 km/h (2 Bft)
06.12.2019 07:00 23,7 C -2,9 C 56 % 96 % 1021,4 hPa 0,0 l/m 8,1 km/h (2 Bft) S-SO 0,00 h 0,0 UV-I 0 W/m -3,5 C -5,0 C 12,5 km/h (2 Bft)
06.12.2019 08:00 23,7 C -3,3 C 55 % 96 % 1021,6 hPa 0,0 l/m 8,8 km/h (2 Bft) S-SO 0,00 h 0,0 UV-I 13 W/m -3,9 C -5,9 C 13,1 km/h (3 Bft)
06.12.2019 09:00 23,7 C -3,1 C 55 % 96 % 1021,4 hPa 0,0 l/m 7,7 km/h (2 Bft) S 0,00 h 0,0 UV-I 39 W/m -3,6 C -4,7 C 11,8 km/h (2 Bft)
06.12.2019 10:00 23,7 C -2,7 C 55 % 96 % 1021,3 hPa 0,0 l/m 6,7 km/h (2 Bft) S-SO 0,00 h 0,0 UV-I 53 W/m -3,2 C -3,9 C 10,3 km/h (2 Bft)
06.12.2019 11:00 23,7 C -2,4 C 55 % 96 % 1020,8 hPa 0,0 l/m 8,0 km/h (2 Bft) S-SO 0,17 h 0,6 UV-I 117 W/m -2,9 C -4,4 C 12,7 km/h (3 Bft)
06.12.2019 12:00 23,6 C -1,9 C 56 % 96 % 1020,0 hPa 0,0 l/m 9,0 km/h (2 Bft) S-SO 0,52 h 0,7 UV-I 158 W/m -2,5 C -4,6 C 13,3 km/h (3 Bft)
06.12.2019 13:00 23,6 C -0,7 C 56 % 93 % 1019,2 hPa 0,0 l/m 9,2 km/h (2 Bft) S-SO 0,97 h 0,7 UV-I 225 W/m -1,8 C -3,4 C 14,1 km/h (3 Bft)
06.12.2019 14:00 23,7 C -0,1 C 56 % 90 % 1018,4 hPa 0,0 l/m 4,2 km/h (1 Bft) S-SO 0,00 h 0,5 UV-I 109 W/m -1,6 C -0,3 C 7,4 km/h (2 Bft)
06.12.2019 15:00 23,7 C -0,5 C 56 % 89 % 1018,0 hPa 0,0 l/m 3,3 km/h (1 Bft) S-SW 0,00 h 0,0 UV-I 33 W/m -2,0 C -0,5 C 5,8 km/h (2 Bft)
06.12.2019 16:00 23,7 C -1,2 C 56 % 91 % 1017,7 hPa 0,0 l/m 2,5 km/h (1 Bft) S-SW 0,00 h 0,0 UV-I 5 W/m -2,5 C -1,2 C 4,6 km/h (1 Bft)
06.12.2019 17:00 23,7 C -1,5 C 56 % 92 % 1017,4 hPa 0,0 l/m 2,9 km/h (1 Bft) S-SO 0,00 h 0,0 UV-I 0 W/m -2,6 C -1,6 C 5,0 km/h (1 Bft)
06.12.2019 18:00 23,7 C -1,8 C 56 % 93 % 1016,9 hPa 0,0 l/m 2,1 km/h (1 Bft) SW 0,00 h 0,0 UV-I 0 W/m -2,8 C -1,8 C 4,1 km/h (1 Bft)
06.12.2019 19:00 23,6 C -1,9 C 56 % 94 % 1016,7 hPa 0,0 l/m 5,2 km/h (1 Bft) S-SO 0,00 h 0,0 UV-I 0 W/m -2,8 C -2,2 C 8,2 km/h (2 Bft)
06.12.2019 20:00 23,8 C -1,9 C 56 % 94 % 1016,3 hPa 0,0 l/m 3,1 km/h (1 Bft) S-SW 0,00 h 0,0 UV-I 0 W/m -2,7 C -2,1 C 5,8 km/h (2 Bft)
06.12.2019 21:00 23,8 C -1,4 C 57 % 95 % 1015,9 hPa 0,0 l/m 4,4 km/h (1 Bft) S-SW 0,00 h 0,0 UV-I 0 W/m -2,1 C -1,5 C 7,4 km/h (2 Bft)
06.12.2019 22:00 24,0 C -0,8 C 57 % 95 % 1015,3 hPa 0,0 l/m 3,1 km/h (1 Bft) S-SW 0,00 h 0,0 UV-I 0 W/m -1,5 C -0,8 C 5,7 km/h (2 Bft)
06.12.2019 23:00 24,1 C -0,2 C 58 % 95 % 1014,8 hPa 0,0 l/m 6,6 km/h (2 Bft) S 0,00 h 0,0 UV-I 0 W/m -0,9 C -1,4 C 10,8 km/h (2 Bft)
07.12.2019 00:00 24,2 C 0,7 C 58 % 95 % 1013,6 hPa 0,6 l/m 7,1 km/h (2 Bft) S-SO 0,00 h 0,0 UV-I 0 W/m -0,1 C -0,6 C 11,5 km/h (2 Bft)
07.12.2019 01:00 24,1 C 1,5 C 57 % 95 % 1012,7 hPa 1,2 l/m 7,7 km/h (2 Bft) S-SO 0,00 h 0,0 UV-I 0 W/m 0,8 C -0,1 C 12,8 km/h (3 Bft)
07.12.2019 02:00 24,0 C 1,8 C 58 % 95 % 1012,8 hPa 0,4 l/m 7,0 km/h (2 Bft) S-SW 0,00 h 0,0 UV-I 0 W/m 1,1 C 0,8 C 12,3 km/h (2 Bft)
07.12.2019 03:00 23,9 C 1,8 C 58 % 96 % 1012,6 hPa 0,4 l/m 6,5 km/h (2 Bft) S 0,00 h 0,0 UV-I 0 W/m 1,2 C 1,1 C 11,4 km/h (2 Bft)
07.12.2019 04:00 23,9 C 2,4 C 58 % 96 % 1012,2 hPa 0,4 l/m 6,1 km/h (2 Bft) S 0,00 h 0,0 UV-I 0 W/m 1,8 C 1,4 C 11,8 km/h (2 Bft)
07.12.2019 05:00 23,9 C 3,1 C 58 % 97 % 1012,2 hPa 0,6 l/m 6,3 km/h (2 Bft) S 0,00 h 0,0 UV-I 0 W/m 2,6 C 2,3 C 11,4 km/h (2 Bft)
07.12.2019 06:00 23,9 C 3,9 C 58 % 97 % 1012,7 hPa 0,2 l/m 5,7 km/h (2 Bft) S-SW 0,00 h 0,0 UV-I 0 W/m 3,5 C 3,4 C 11,6 km/h (2 Bft)
07.12.2019 07:00 23,9 C 5,0 C 58 % 97 % 1013,4 hPa 0,0 l/m 7,8 km/h (2 Bft) SW 0,00 h 0,0 UV-I 0 W/m 4,6 C 3,7 C 14,5 km/h (3 Bft)
07.12.2019 08:00 23,8 C 5,5 C 58 % 96 % 1013,7 hPa 0,2 l/m 9,8 km/h (2 Bft) SW 0,00 h 0,0 UV-I 11 W/m 4,9 C 2,8 C 17,1 km/h (3 Bft)
07.12.2019 09:00 23,8 C 5,8 C 57 % 95 % 1014,0 hPa 0,0 l/m 12,1 km/h (2 Bft) SW 0,00 h 0,0 UV-I 34 W/m 5,0 C 1,8 C 19,1 km/h (3 Bft)
07.12.2019 10:00 23,8 C 6,1 C 56 % 94 % 1014,7 hPa 0,0 l/m 9,4 km/h (2 Bft) SW 0,00 h 0,5 UV-I 60 W/m 5,1 C 3,6 C 16,6 km/h (3 Bft)
07.12.2019 11:00 23,7 C 6,1 C 55 % 92 % 1014,9 hPa 0,0 l/m 7,6 km/h (2 Bft) SW 0,00 h 0,6 UV-I 36 W/m 4,9 C 4,8 C 14,7 km/h (3 Bft)
07.12.2019 12:00 23,7 C 6,2 C 55 % 91 % 1015,0 hPa 0,0 l/m 5,3 km/h (1 Bft) SW 0,00 h 0,0 UV-I 27 W/m 4,8 C 5,6 C 11,4 km/h (2 Bft)
07.12.2019 13:00 23,8 C 6,1 C 56 % 93 % 1015,0 hPa 0,2 l/m 4,5 km/h (1 Bft) SW 0,23 h 0,5 UV-I 101 W/m 5,0 C 5,9 C 10,7 km/h (2 Bft)
07.12.2019 14:00 23,8 C 6,3 C 56 % 93 % 1015,1 hPa 0,4 l/m 7,5 km/h (2 Bft) W-SW 0,12 h 0,5 UV-I 65 W/m 5,2 C 5,0 C 13,7 km/h (3 Bft)
07.12.2019 15:00 23,8 C 5,9 C 56 % 93 % 1015,6 hPa 0,0 l/m 5,3 km/h (1 Bft) SW 0,00 h 0,0 UV-I 10 W/m 4,9 C 5,5 C 10,6 km/h (2 Bft)
07.12.2019 16:00 23,8 C 5,4 C 55 % 93 % 1016,2 hPa 0,0 l/m 5,3 km/h (1 Bft) SW 0,00 h 0,0 UV-I 5 W/m 4,3 C 4,7 C 11,3 km/h (2 Bft)
07.12.2019 17:00 23,8 C 4,9 C 56 % 93 % 1016,7 hPa 0,0 l/m 3,4 km/h (1 Bft) S-SO 0,00 h 0,0 UV-I 0 W/m 3,9 C 4,9 C 6,7 km/h (2 Bft)
07.12.2019 18:00 23,8 C 4,9 C 57 % 94 % 1017,2 hPa 0,2 l/m 3,2 km/h (1 Bft) S-SW 0,00 h 0,0 UV-I 0 W/m 4,1 C 4,9 C 6,7 km/h (2 Bft)
07.12.2019 19:00 23,8 C 4,8 C 58 % 95 % 1017,5 hPa 0,0 l/m 4,2 km/h (1 Bft) S-SW 0,00 h 0,0 UV-I 0 W/m 4,1 C 4,7 C 7,9 km/h (2 Bft)
07.12.2019 20:00 23,8 C 4,8 C 59 % 95 % 1017,7 hPa 0,0 l/m 4,5 km/h (1 Bft) S-SW 0,00 h 0,0 UV-I 0 W/m 4,1 C 4,7 C 9,2 km/h (2 Bft)
07.12.2019 21:00 23,9 C 4,9 C 60 % 95 % 1017,6 hPa 0,2 l/m 4,1 km/h (1 Bft) S-SW 0,00 h 0,0 UV-I 0 W/m 4,2 C 4,9 C 8,2 km/h (2 Bft)
07.12.2019 22:00 24,1 C 4,9 C 61 % 95 % 1017,3 hPa 0,4 l/m 2,2 km/h (1 Bft) SW 0,00 h 0,0 UV-I 0 W/m 4,2 C 4,9 C 5,0 km/h (1 Bft)
07.12.2019 23:00 24,1 C 5,1 C 61 % 96 % 1017,3 hPa 0,6 l/m 3,0 km/h (1 Bft) SW 0,00 h 0,0 UV-I 0 W/m 4,5 C 5,1 C 6,6 km/h (2 Bft)
08.12.2019 00:00 24,1 C 5,1 C 61 % 96 % 1016,8 hPa 0,0 l/m 4,2 km/h (1 Bft) S 0,00 h 0,0 UV-I 0 W/m 4,5 C 5,1 C 8,4 km/h (2 Bft)
08.12.2019 01:00 24,0 C 5,1 C 61 % 96 % 1016,4 hPa 0,0 l/m 4,4 km/h (1 Bft) S-SW 0,00 h 0,0 UV-I 0 W/m 4,5 C 4,9 C 10,0 km/h (2 Bft)
08.12.2019 02:00 24,0 C 5,1 C 61 % 96 % 1015,8 hPa 0,0 l/m 5,6 km/h (2 Bft) S-SO 0,00 h 0,0 UV-I 0 W/m 4,5 C 4,7 C 9,9 km/h (2 Bft)
08.12.2019 03:00 24,0 C 5,0 C 62 % 95 % 1015,4 hPa 0,0 l/m 4,9 km/h (1 Bft) S-SO 0,00 h 0,0 UV-I 0 W/m 4,4 C 4,7 C 10,0 km/h (2 Bft)
08.12.2019 04:00 24,0 C 5,0 C 62 % 95 % 1014,8 hPa 0,0 l/m 4,3 km/h (1 Bft) S-SO 0,00 h 0,0 UV-I 0 W/m 4,2 C 4,8 C 8,3 km/h (2 Bft)
08.12.2019 05:00 24,0 C 5,0 C 62 % 94 % 1013,8 hPa 0,0 l/m 5,4 km/h (1 Bft) S-SO 0,00 h 0,0 UV-I 0 W/m 4,2 C 4,5 C 10,5 km/h (2 Bft)
08.12.2019 06:00 24,1 C 5,1 C 62 % 94 % 1013,4 hPa 0,0 l/m 7,7 km/h (2 Bft) S-SO 0,00 h 0,0 UV-I 0 W/m 4,2 C 3,6 C 13,2 km/h (3 Bft)
08.12.2019 07:00 24,1 C 5,5 C 62 % 92 % 1013,0 hPa 0,2 l/m 7,3 km/h (2 Bft) S 0,00 h 0,0 UV-I 0 W/m 4,3 C 4,3 C 14,5 km/h (3 Bft)
08.12.2019 08:00 24,0 C 5,9 C 61 % 88 % 1012,5 hPa 0,0 l/m 8,1 km/h (2 Bft) S-SW 0,00 h 0,0 UV-I 15 W/m 4,0 C 4,0 C 15,7 km/h (3 Bft)
08.12.2019 09:00 23,9 C 5,8 C 60 % 89 % 1012,1 hPa 0,0 l/m 9,6 km/h (2 Bft) S 0,00 h 0,0 UV-I 32 W/m 4,1 C 3,3 C 15,3 km/h (3 Bft)
08.12.2019 10:00 23,8 C 5,8 C 58 % 89 % 1011,8 hPa 0,0 l/m 11,0 km/h (2 Bft) S 0,00 h 0,0 UV-I 41 W/m 4,2 C 2,5 C 17,9 km/h (3 Bft)
08.12.2019 11:00 23,7 C 6,0 C 56 % 88 % 1011,0 hPa 0,0 l/m 12,5 km/h (2 Bft) S-SO 0,00 h 0,5 UV-I 64 W/m 4,2 C 1,8 C 19,1 km/h (3 Bft)
08.12.2019 12:00 23,6 C 6,2 C 55 % 89 % 1009,7 hPa 0,0 l/m 13,6 km/h (3 Bft) S-SO 0,00 h 0,5 UV-I 64 W/m 4,5 C 1,4 C 20,1 km/h (4 Bft)
08.12.2019 13:00 23,6 C 6,5 C 54 % 88 % 1008,8 hPa 0,0 l/m 13,2 km/h (3 Bft) S-SO 0,00 h 0,0 UV-I 49 W/m 4,7 C 1,9 C 20,9 km/h (4 Bft)
08.12.2019 14:00 23,5 C 6,8 C 53 % 86 % 1008,1 hPa 0,0 l/m 12,8 km/h (3 Bft) S-SO 0,00 h 0,0 UV-I 40 W/m 4,7 C 2,6 C 20,1 km/h (4 Bft)
08.12.2019 15:00 23,4 C 6,9 C 52 % 86 % 1007,5 hPa 0,0 l/m 10,8 km/h (2 Bft) S-SO 0,00 h 0,0 UV-I 10 W/m 4,7 C 3,8 C 16,9 km/h (3 Bft)
08.12.2019 16:00 23,4 C 6,8 C 52 % 87 % 1007,1 hPa 0,0 l/m 7,3 km/h (2 Bft) S-SO 0,00 h 0,0 UV-I 0 W/m 4,8 C 5,7 C 12,5 km/h (2 Bft)
08.12.2019 17:00 23,5 C 6,5 C 54 % 91 % 1006,5 hPa 0,0 l/m 10,2 km/h (2 Bft) S-SO 0,00 h 0,0 UV-I 0 W/m 5,2 C 3,7 C 15,8 km/h (3 Bft)
08.12.2019 18:00 23,6 C 6,6 C 54 % 92 % 1005,7 hPa 0,0 l/m 8,2 km/h (2 Bft) S-SO 0,00 h 0,0 UV-I 0 W/m 5,4 C 4,8 C 13,8 km/h (3 Bft)
08.12.2019 19:00 23,6 C 6,9 C 55 % 91 % 1005,0 hPa 0,0 l/m 6,4 km/h (2 Bft) S-SO 0,00 h 0,0 UV-I 0 W/m 5,5 C 5,6 C 12,1 km/h (2 Bft)
08.12.2019 20:00 23,7 C 6,9 C 55 % 92 % 1004,4 hPa 0,2 l/m 5,1 km/h (1 Bft) S-SO 0,00 h 0,0 UV-I 0 W/m 5,6 C 6,6 C 11,1 km/h (2 Bft)
08.12.2019 21:00 23,8 C 6,9 C 57 % 93 % 1003,8 hPa 0,0 l/m 8,8 km/h (2 Bft) S 0,00 h 0,0 UV-I 0 W/m 5,9 C 4,8 C 15,7 km/h (3 Bft)
08.12.2019 22:00 23,9 C 7,0 C 58 % 94 % 1003,2 hPa 0,0 l/m 9,6 km/h (2 Bft) S-SO 0,00 h 0,0 UV-I 0 W/m 6,1 C 4,6 C 16,4 km/h (3 Bft)
08.12.2019 23:00 24,1 C 7,2 C 58 % 95 % 1002,8 hPa 0,0 l/m 11,3 km/h (2 Bft) S-SO 0,00 h 0,0 UV-I 0 W/m 6,5 C 3,8 C 18,9 km/h (3 Bft)
Min-Datum _ 04.12.19 05.12.19 04.12.19 04.12.19 08.12.19 - 02.12.19 - - - - 05.12.19 06.12.19 02.12.19
_ Min-Zeit 08:34 07:55 08:32 14:30 23:47 - 00:08 - - - - 07:56 08:13 00:28
Minimum _ 23,4 C -4,2 C 42 % 68 % 1002,6 hPa - 0,0 km/h (0 Bft) - - - - -5,4 C -10,6 C 0,0 km/h (0 Bft)
Max-Datum _ 02.12.19 08.12.19 08.12.19 04.12.19 03.12.19 07.12.19 08.12.19 - 02.12.19 04.12.19 06.12.19 08.12.19 08.12.19 07.12.19
_ Max-Zeit 00:30 23:52 02:47 09:33 10:36 01:03 11:14 - 11:27 11:24 13:16 23:52 23:53 09:01
Maximum _ 24,9 C 7,4 C 62 % 97 % 1029,8 hPa 1,2 l/m 20,9 km/h
S-SO (4 Bft)
- 0,03 h 1,0 UV-I 330 W/m 6,7 C 7,3 C 33,8 km/h
SW (5 Bft)
Durchschnitt _ 24,0 C 1,4 C 56 % 91 % 1020,4 hPa #6,4 l/m 4,6 km/h (1 Bft) S-SO #9:06 h 0,6 UV-I 28 W/m 0,1 C 0,7 C 8,1 km/h (2 Bft)